Location: Ravensburg
(47.7866°N, 9.6124°E)
Time: 10:33:24
(UTC+02:00)

AO-73 - Pass Details

Date: 16 March 2026
Orbit: 514 x 567 km, 97.8° (Epoch: 18 April)

Event Time Altitude Azimuth Distance (km) Brightness Sun altitude
Rises 03:22:48 0° 25° (NNE) 2,668 ? -30.9°
Reaches altitude 10° 03:25:15 10° 40° (NE) 1,766 ? -30.5°
Enters shadow 03:27:48 22° 81° (E) 1,159 ? -30.2°
